| time (UTC) | temp F | wind direction | speed knots | gust knots | rain 1hr in | rain 24hr in | rain mn in | humidity % | barometer mb |
| 20260504204604 | 81 | 319 | 0.0 | 0.0 | 0.00 | 0.00 | 0.00 | 30 | 1004.7 |
| 20260504203056 | 80 | 319 | 0.0 | 0.0 | 0.00 | 0.00 | 0.00 | 31 | 1004.8 |
| 20260504201551 | 79 | 359 | 0.0 | 0.0 | 0.00 | 0.00 | 0.00 | 32 | 1004.9 |
| 20260504200049 | 78 | 329 | 0.0 | 0.0 | 0.00 | 0.00 | 0.00 | 33 | 1005.0 |
| 20260504194547 | 78 | 329 | 0.0 | 0.0 | 0.00 | 0.00 | 0.00 | 34 | 1005.0 |
| 20260504193058 | 77 | 359 | 0.0 | 0.0 | 0.00 | 0.00 | 0.00 | 33 | 1005.1 |
| 20260504191543 | 76 | 329 | 0.0 | 0.0 | 0.00 | 0.00 | 0.00 | 32 | 1005.2 |
| 20260504190042 | 76 | 329 | 0.0 | 0.0 | 0.00 | 0.00 | 0.00 | 34 | 1005.4 |
| 20260504184537 | 75 | 329 | 0.0 | 0.0 | 0.00 | 0.00 | 0.00 | 36 | 1005.4 |
| 20260504183041 | 74 | 329 | 0.0 | 0.0 | 0.00 | 0.00 | 0.00 | 41 | 1005.5 |
| 20260504181536 | 74 | 329 | 0.0 | 0.0 | 0.00 | 0.00 | 0.00 | 37 | 1005.7 |
| 20260504180036 | 74 | 329 | 0.0 | 0.0 | 0.00 | 0.00 | 0.00 | 39 | 1005.6 |
| 20260504174529 | 73 | 324 | 0.0 | 0.0 | 0.00 | 0.00 | 0.00 | 39 | 1005.7 |
| 20260504173030 | 73 | 359 | 0.0 | 0.0 | 0.00 | 0.00 | 0.00 | 41 | 1005.7 |
| 20260504171525 | 72 | 359 | 0.0 | 0.0 | 0.00 | 0.00 | 0.00 | 40 | 1005.7 |
| 20260504081514 | 52 | 8 | 0.0 | 0.0 | 0.00 | 0.00 | 0.00 | 74 | 1005.4 |
| 20260504050118 | 58 | 8 | 0.0 | 0.0 | 0.00 | 0.00 | 0.00 | 64 | 1005.5 |
| 20260504044559 | 59 | 8 | 0.0 | 0.0 | 0.00 | 0.00 | 0.00 | 63 | 1005.6 |
| 20260504043105 | 59 | 8 | 0.0 | 0.0 | 0.00 | 0.00 | 0.00 | 63 | 1005.5 |
| 20260504041600 | 61 | 8 | 0.0 | 0.0 | 0.00 | 0.00 | 0.00 | 60 | 1005.4 |
| 20260504040105 | 62 | 8 | 0.0 | 0.0 | 0.00 | 0.00 | 0.00 | 59 | 1005.3 |
| 20260504034616 | 63 | 8 | 0.0 | 0.0 | 0.00 | 0.00 | 0.00 | 58 | 1005.2 |
| 20260504033104 | 64 | 8 | 0.0 | 0.0 | 0.00 | 0.00 | 0.00 | 57 | 1005.0 |
| 20260504031604 | 68 | 8 | 0.0 | 0.0 | 0.00 | 0.00 | 0.00 | 52 | 1005.0 |
| 20260504030057 | 72 | 8 | 0.0 | 0.0 | 0.00 | 0.00 | 0.00 | 47 | 1004.9 |
| 20260504024558 | 74 | 8 | 0.0 | 0.0 | 0.00 | 0.00 | 0.00 | 45 | 1004.9 |
| 20260504023056 | 75 | 8 | 0.0 | 0.0 | 0.00 | 0.00 | 0.00 | 40 | 1005.0 |
| 20260504021557 | 76 | 8 | 0.0 | 0.0 | 0.00 | 0.00 | 0.00 | 37 | 1005.1 |
| 20260504020104 | 77 | 4 | 0.0 | 0.0 | 0.00 | 0.00 | 0.00 | 35 | 1005.3 |
| 20260504014556 | 78 | 354 | 0.0 | 0.0 | 0.00 | 0.00 | 0.00 | 34 | 1005.5 |
| 20260504013152 | 79 | 354 | 0.0 | 0.0 | 0.00 | 0.00 | 0.00 | 33 | 1005.5 |
| 20260504011550 | 79 | 354 | 0.0 | 0.0 | 0.00 | 0.00 | 0.00 | 32 | 1005.7 |
| 20260504010050 | 79 | 350 | 0.0 | 0.0 | 0.00 | 0.00 | 0.00 | 31 | 1005.8 |
| 20260504004546 | 80 | 359 | 0.0 | 0.0 | 0.00 | 0.00 | 0.00 | 31 | 1006.0 |
| 20260504003047 | 80 | 359 | 0.0 | 0.0 | 0.00 | 0.00 | 0.00 | 30 | 1006.1 |
| 20260504001544 | 80 | 359 | 0.0 | 0.0 | 0.00 | 0.00 | 0.00 | 29 | 1006.3 |
| 20260504000046 | 81 | 4 | 0.0 | 0.0 | 0.00 | 0.00 | 0.00 | 28 | 1006.4 |
| 20260503234541 | 81 | 4 | 0.0 | 0.0 | 0.00 | 0.00 | 0.00 | 28 | 1006.5 |
| 20260503233040 | 80 | 4 | 0.0 | 0.0 | 0.00 | 0.00 | 0.00 | 30 | 1006.6 |
| 20260503231540 | 81 | 359 | 0.0 | 0.0 | 0.00 | 0.00 | 0.00 | 28 | 1006.7 |
| 20260503230039 | 81 | 354 | 0.0 | 0.0 | 0.00 | 0.00 | 0.00 | 29 | 1006.8 |
| 20260503224536 | 82 | 354 | 0.0 | 0.0 | 0.00 | 0.00 | 0.00 | 28 | 1006.9 |
| 20260503223034 | 81 | 354 | 0.0 | 0.0 | 0.00 | 0.00 | 0.00 | 24 | 1007.2 |
| 20260503221534 | 81 | 354 | 0.0 | 0.0 | 0.00 | 0.00 | 0.00 | 27 | 1007.2 |
| 20260503220032 | 82 | 354 | 0.0 | 0.0 | 0.00 | 0.00 | 0.00 | 33 | 1007.5 |
| 20260503214539 | 81 | 354 | 0.0 | 0.0 | 0.00 | 0.00 | 0.00 | 34 | 1007.6 |
| 20260503213029 | 81 | 359 | 0.0 | 0.0 | 0.00 | 0.00 | 0.00 | 29 | 1007.8 |
| 20260503211525 | 81 | 359 | 0.0 | 0.0 | 0.00 | 0.00 | 0.00 | 32 | 1008.1 |
| 20260503210024 | 81 | 354 | 0.0 | 0.0 | 0.00 | 0.00 | 0.00 | 32 | 1008.2 |